(192185) = 2004 PY48 = 2007 FS43

Discovered at Kitt Peak on 2007-03-18 by Spacewatch.

Orbit

Orbit type: Main Belt

Note: WebGL enabled browser required.

epoch2024-03-31.0
epoch JD2460400.5
perihelion date2021-12-29.59873
perihelion JD2459578.09873
argument of perihelion (°)276.97493
ascending node (°)7.38050
inclination (°)3.68433
eccentricity0.1401007
perihelion distance (AU)1.9908044
Tisserand w.r.t. Jupiter3.6
ΔV w.r.t. Earth (km/sec)8.8
semimajor axis (AU)2.3151599
mean anomaly (°)230.09985
mean daily motion (°/day)0.27979020
aphelion distance (AU)2.640
period (years)3.52
P-vector [x]0.24767281
P-vector [y]-0.86159652
P-vector [z]-0.44306841
Q-vector [x]0.96880857
Q-vector [y]0.22414479
Q-vector [z]0.10568384
absolute magnitude17.15
phase slope0.15
uncertainty0
referenceE2024-G95
observations used375
oppositions16
arc length (days)8748
first opposition used2000
last opposition used2024
residual rms (arc-secs)0.83
perturbers coarse indicatorM-v
perturbers precise indicator003Ek
first observation date used2000-04-25.0
last observation date used2024-04-07.0
computer nameMPCLINUX
JD of orbit computation2456789.406910
perihelion JD uncertainty (days)9.6135E-05
argument of perihelion uncertainty (°)7.7854E-05
ascending node uncertainty (°)7.3137E-05
inclination uncertainty (°)7.6150E-06
eccentricity uncertainty 4.3137E-08
perihelion distance uncertainty (AU)1.0686E-07
Minimum Orbit Intersection Distances (in AU)
for orbit epoch: 2460400.5, reference: E2024-G95
Mercury1.53213
Venus1.26385
Earth0.97838
Mars0.53774
Jupiter2.49465
Saturn6.4208
Uranus15.9365
Neptune27.3381

Observations

385 total observations over interval: 2000 04 25.28219 – 2024 01 31.519061
These data are available for download (format description).

Date (UT) J2000 RA J2000 Dec Magn Location Ref
2000 04 25.28219 14 16 07.28 -17 10 20.9 19.2 R 699 – Lowell Observatory-LONEOS MPS 210177
2000 04 25.29801 14 16 06.15 -17 10 17.7   699 – Lowell Observatory-LONEOS MPS 210177
2000 04 25.31382 14 16 05.03 -17 10 15.7   699 – Lowell Observatory-LONEOS MPS 210177
2000 04 25.32967 14 16 04.10 -17 10 13.5   699 – Lowell Observatory-LONEOS MPS 210177
2001 10 21.35845 02 45 05.50 +19 13 01.7 19.8   704 – Lincoln Laboratory ETS, New Mexico MPS 213883
2001 10 21.37479 02 45 04.48 +19 12 59.0 20.3   704 – Lincoln Laboratory ETS, New Mexico MPS 213883
2001 10 21.39113 02 45 03.54 +19 12 56.8 20.5   704 – Lincoln Laboratory ETS, New Mexico MPS 213883
2001 10 21.40747 02 45 02.45 +19 12 53.5 20.2   704 – Lincoln Laboratory ETS, New Mexico MPS 213883
2001 11 19.22946 02 15 03.74 +17 26 33.1 20.8   704 – Lincoln Laboratory ETS, New Mexico MPS 213883
2001 11 19.24416 02 15 02.87 +17 26 30.7 20.7   704 – Lincoln Laboratory ETS, New Mexico MPS 213883
2001 11 19.25904 02 15 02.18 +17 26 28.1 20.4   704 – Lincoln Laboratory ETS, New Mexico MPS 213883
2004 08 08.22156 21 22 30.64 -21 26 08.2 18.4   644 – Palomar Mountain/NEAT MPS 210177
2004 08 08.24906 21 22 28.90 -21 26 12.8 18.3   644 – Palomar Mountain/NEAT MPS 210177
2004 08 08.25446 21 22 28.45 -21 26 13.9 19.0   704 – Lincoln Laboratory ETS, New Mexico MPS 111236
2004 08 08.26382 21 22 27.91 -21 26 14.3 18.5   704 – Lincoln Laboratory ETS, New Mexico MPS 111236
2004 08 08.26837 21 22 27.69 -21 26 16.0 18.4   644 – Palomar Mountain/NEAT MPS 210177
2004 08 08.29205 21 22 26.10 -21 26 18.6 19.3   704 – Lincoln Laboratory ETS, New Mexico MPS 111236
2004 08 11.22515 21 19 28.63 -21 33 25.7 19.3   704 – Lincoln Laboratory ETS, New Mexico MPS 111236
2004 08 11.23527 21 19 28.03 -21 33 27.0 19.6   704 – Lincoln Laboratory ETS, New Mexico MPS 111236
2004 08 11.24526 21 19 27.39 -21 33 28.8 19.8   704 – Lincoln Laboratory ETS, New Mexico MPS 111236
2004 08 11.25527 21 19 26.74 -21 33 30.2 19.6   704 – Lincoln Laboratory ETS, New Mexico MPS 111236
2004 08 11.26542 21 19 26.05 -21 33 31.8 19.4   704 – Lincoln Laboratory ETS, New Mexico MPS 111236
2005 12 08.39267 06 30 31.18 +28 58 16.6 20.6 V 691 – Steward Observatory, Kitt Peak-Spacewatch MPS 210177
2005 12 08.41292 06 30 29.92 +28 58 16.7 21.1 V 691 – Steward Observatory, Kitt Peak-Spacewatch MPS 210177
2005 12 08.43315 06 30 28.61 +28 58 19.0 20.8 V 691 – Steward Observatory, Kitt Peak-Spacewatch MPS 210177
2007 02 26.42996 14 08 52.44 -13 33 52.4 21.1 V G96 – Mt. Lemmon Survey MPS 210177
2007 02 26.43892 14 08 52.54 -13 33 54.3 20.9 V G96 – Mt. Lemmon Survey MPS 210178
2007 02 26.44779 14 08 52.62 -13 33 55.7 20.9 V G96 – Mt. Lemmon Survey MPS 210178
2007 02 26.45678 14 08 52.80 -13 33 57.4 21.0 V G96 – Mt. Lemmon Survey MPS 210178
2007 03 18.38803 14 07 27.89 -14 09 41.8 20.7 V 691 – Steward Observatory, Kitt Peak-Spacewatch MPS 210178
2007 03 18.40574 14 07 27.46 -14 09 42.2 20.6 V 691 – Steward Observatory, Kitt Peak-Spacewatch MPS 210178
2007 03 18.42346 14 07 26.98 -14 09 42.5 20.8 V 691 – Steward Observatory, Kitt Peak-Spacewatch MPS 210178
2007 03 29.36556 14 01 21.94 -14 04 50.2 20.9 V 691 – Steward Observatory, Kitt Peak-Spacewatch MPS 210178
2007 03 29.38324 14 01 21.16 -14 04 48.3 20.3 V 691 – Steward Observatory, Kitt Peak-Spacewatch MPS 210178
2007 03 29.40091 14 01 20.35 -14 04 47.1 20.5 V 691 – Steward Observatory, Kitt Peak-Spacewatch MPS 210178
2007 04 15.32805 13 46 11.63 -13 25 12.3 19.4   704 – Lincoln Laboratory ETS, New Mexico MPS 213883
2007 04 15.33832 13 46 10.91 -13 25 10.0 19.3   704 – Lincoln Laboratory ETS, New Mexico MPS 213883
2007 04 15.34786 13 46 10.42 -13 25 08.3 19.1   704 – Lincoln Laboratory ETS, New Mexico MPS 213883
2007 04 18.31159 13 43 07.13 -13 15 09.7 19.1   704 – Lincoln Laboratory ETS, New Mexico MPS 213883
2007 04 18.32080 13 43 06.52 -13 15 06.8 18.9   704 – Lincoln Laboratory ETS, New Mexico MPS 213883
2007 04 18.33017 13 43 05.96 -13 15 03.6 19.1   704 – Lincoln Laboratory ETS, New Mexico MPS 213883
2007 04 18.34867 13 43 04.73 -13 15 00.0 19.2   704 – Lincoln Laboratory ETS, New Mexico MPS 213883
2008 07 30.43197 02 18 11.48 +14 00 29.5 21.1 V G96 – Mt. Lemmon Survey MPS 252986
2008 07 30.43914 02 18 11.95 +14 00 31.7 22.0 V G96 – Mt. Lemmon Survey MPS 252986
2008 07 30.44632 02 18 12.38 +14 00 34.5 20.8 V G96 – Mt. Lemmon Survey MPS 252986
2008 07 30.45360 02 18 12.81 +14 00 37.9 21.4 V G96 – Mt. Lemmon Survey MPS 252986
2008 09 07.44979 02 40 14.91 +16 54 20.2 20.8 V G96 – Mt. Lemmon Survey MPS 255916
2008 09 07.46241 02 40 14.91 +16 54 21.6 20.7 V G96 – Mt. Lemmon Survey MPS 255916
2008 09 07.46873 02 40 14.95 +16 54 23.0 21.1 V G96 – Mt. Lemmon Survey MPS 255916
2008 09 21.36088 02 37 36.55 +17 11 57.8 20.4 V G96 – Mt. Lemmon Survey MPS 257702
2008 09 21.36811 02 37 36.33 +17 11 58.0 20.3 V G96 – Mt. Lemmon Survey MPS 257702
2008 09 21.37542 02 37 36.15 +17 11 57.5 20.3 V G96 – Mt. Lemmon Survey MPS 257702
2008 09 21.38264 02 37 35.97 +17 11 58.0 20.2 V G96 – Mt. Lemmon Survey MPS 257702
2008 09 22.43426 02 37 08.60 +17 12 11.9 20.5 V 691 – Steward Observatory, Kitt Peak-Spacewatch MPS 257702
2008 09 22.45185 02 37 08.10 +17 12 11.9 20.5 V 691 – Steward Observatory, Kitt Peak-Spacewatch MPS 257702
2008 09 22.46947 02 37 07.57 +17 12 12.0 20.4 V 691 – Steward Observatory, Kitt Peak-Spacewatch MPS 257702
2008 09 26.37075 02 35 08.18 +17 11 35.3   691 – Steward Observatory, Kitt Peak-Spacewatch MPS 257702
2008 09 26.38836 02 35 07.54 +17 11 34.8   691 – Steward Observatory, Kitt Peak-Spacewatch MPS 257702
2008 09 26.40598 02 35 06.93 +17 11 34.0   691 – Steward Observatory, Kitt Peak-Spacewatch MPS 257702
2008 10 01.37339 02 31 54.35 +17 07 30.2 20.4 V 691 – Steward Observatory, Kitt Peak-Spacewatch MPS 259052
2008 10 01.39100 02 31 53.57 +17 07 28.8 20.5 V 691 – Steward Observatory, Kitt Peak-Spacewatch MPS 259052
2008 10 01.40862 02 31 52.76 +17 07 27.6 20.4 V 691 – Steward Observatory, Kitt Peak-Spacewatch MPS 259052
2008 10 08.39687 02 26 13.90 +16 55 38.6 20.2 V 691 – Steward Observatory, Kitt Peak-Spacewatch MPS 260208
2008 10 08.41449 02 26 12.91 +16 55 36.1 20.3 V 691 – Steward Observatory, Kitt Peak-Spacewatch MPS 260208
2008 10 08.43212 02 26 11.92 +16 55 33.8 20.4 V 691 – Steward Observatory, Kitt Peak-Spacewatch MPS 260208
2008 10 09.33757 02 25 23.21 +16 53 31.7 20.3 V 691 – Steward Observatory, Kitt Peak-Spacewatch MPS 260208
2008 10 09.35518 02 25 22.19 +16 53 29.6 20.3 V 691 – Steward Observatory, Kitt Peak-Spacewatch MPS 260208
2008 10 09.37283 02 25 21.18 +16 53 26.9 20.2 V 691 – Steward Observatory, Kitt Peak-Spacewatch MPS 260208
2008 10 19.19337 02 15 36.87 +16 24 51.3 20.2 V 691 – Steward Observatory, Kitt Peak-Spacewatch MPS 261218
2008 10 19.21098 02 15 35.77 +16 24 47.8 19.9 V 691 – Steward Observatory, Kitt Peak-Spacewatch MPS 261218
2008 10 19.22860 02 15 34.57 +16 24 44.3 19.9 V 691 – Steward Observatory, Kitt Peak-Spacewatch MPS 261218
2008 11 01.25210 02 01 38.78 +15 33 37.7 20.0   704 – Lincoln Laboratory ETS, New Mexico MPS 264506
2008 11 01.27552 02 01 37.28 +15 33 33.2 20.6   704 – Lincoln Laboratory ETS, New Mexico MPS 264506
2008 11 01.29914 02 01 35.77 +15 33 26.6 20.0   704 – Lincoln Laboratory ETS, New Mexico MPS 264506
2008 11 06.25098 01 56 35.08 +15 12 40.2 19.6 V G96 – Mt. Lemmon Survey MPS 264506
2008 11 06.25637 01 56 34.76 +15 12 38.4 19.5 V G96 – Mt. Lemmon Survey MPS 264506
2008 11 06.26182 01 56 34.44 +15 12 37.2 19.5 V G96 – Mt. Lemmon Survey MPS 264506
2008 11 06.26721 01 56 34.08 +15 12 36.0 19.4 V G96 – Mt. Lemmon Survey MPS 264506
2008 11 18.08244 01 46 27.54 +14 26 54.4 20.4 V 691 – Steward Observatory, Kitt Peak-Spacewatch MPS 266258
2008 11 18.09562 01 46 26.95 +14 26 52.4 20.0 V 691 – Steward Observatory, Kitt Peak-Spacewatch MPS 266258
2008 11 18.10880 01 46 26.37 +14 26 49.3 20.3 V 691 – Steward Observatory, Kitt Peak-Spacewatch MPS 266258
2008 12 02.22022 01 39 10.26 +13 49 56.7 20.8 V G96 – Mt. Lemmon Survey MPS 268692
2008 12 02.22677 01 39 10.15 +13 49 56.3 21.0 V G96 – Mt. Lemmon Survey MPS 268692
2008 12 02.23331 01 39 09.97 +13 49 55.5 20.8 V G96 – Mt. Lemmon Survey MPS 268692
